DLH5XY EDDF-LKPR

Flight info

Callsign DLH5XY
Flight time 0h 50m
Altitude 29000
Route SULUS7S/18 SULUS Z650 TONSU Z35 ODOMO DCT LOMKI LOMK8S
Aircraft A321/M-SDE3FGHIRWY/LB1

Departure

Time 2026-05-04 15:43
Airport Frankfurt Main Airport (EDDF)

Arrival

Time 2026-05-04 16:34
Airport Václav Havel Airport Prague (LKPR)
Time Latitude Longitude Altitude Speed Heading
2026-05-04 14:58 50.04607 8.56773 356 ft 0 kts 295°
2026-05-04 15:27 50.04589 8.56838 356 ft 2 kts 296°
2026-05-04 15:28 50.04593 8.56903 356 ft 4 kts 206°
2026-05-04 15:28 50.04613 8.56914 360 ft 2 kts 193°
2026-05-04 15:28 50.04569 8.56898 358 ft 4 kts 193°
2026-05-04 15:29 50.04543 8.56888 359 ft 4 kts 193°
2026-05-04 15:30 50.04533 8.56884 359 ft 0 kts 193°
2026-05-04 15:32 50.04463 8.56844 361 ft 11 kts 221°
2026-05-04 15:32 50.04396 8.56596 361 ft 14 kts 250°
2026-05-04 15:33 50.04318 8.56271 361 ft 17 kts 249°
2026-05-04 15:34 50.04225 8.55882 353 ft 13 kts 249°
2026-05-04 15:34 50.04192 8.55742 357 ft 14 kts 250°
2026-05-04 15:34 50.04115 8.55420 354 ft 17 kts 250°
2026-05-04 15:35 50.04029 8.55062 353 ft 20 kts 249°
2026-05-04 15:35 50.03979 8.54852 359 ft 22 kts 249°
2026-05-04 15:35 50.03925 8.54625 358 ft 23 kts 249°
2026-05-04 15:36 50.03784 8.54157 350 ft 25 kts 249°
2026-05-04 15:36 50.03724 8.53903 343 ft 25 kts 250°
2026-05-04 15:36 50.03661 8.53644 342 ft 26 kts 249°
2026-05-04 15:37 50.03596 8.53385 338 ft 26 kts 250°
2026-05-04 15:37 50.03543 8.53164 337 ft 19 kts 249°
2026-05-04 15:37 50.03497 8.52971 337 ft 16 kts 250°
2026-05-04 15:37 50.03470 8.52867 335 ft 10 kts 246°
2026-05-04 15:38 50.03440 8.52760 334 ft 8 kts 249°
2026-05-04 15:38 50.03435 8.52736 332 ft 2 kts 249°
2026-05-04 15:38 50.03434 8.52735 331 ft 0 kts 249°
2026-05-04 15:40 50.03434 8.52734 336 ft 0 kts 249°
2026-05-04 15:40 50.03424 8.52690 336 ft 10 kts 249°
2026-05-04 15:40 50.03400 8.52603 336 ft 5 kts 227°
2026-05-04 15:40 50.03364 8.52594 336 ft 0 kts 180°
2026-05-04 15:42 50.03163 8.52595 336 ft 67 kts 179°
2026-05-04 15:42 50.02456 8.52602 334 ft 133 kts 179°
2026-05-04 15:43 50.01354 8.52610 453 ft 172 kts 180°
2026-05-04 15:43 50.00182 8.52607 1189 ft 167 kts 182°
2026-05-04 15:43 49.99029 8.52615 1854 ft 168 kts 182°
2026-05-04 15:43 49.97831 8.52689 2301 ft 180 kts 172°
2026-05-04 15:44 49.96613 8.53505 2429 ft 203 kts 144°
2026-05-04 15:44 49.95683 8.55273 2571 ft 222 kts 120°
2026-05-04 15:44 49.94912 8.57451 2769 ft 236 kts 120°
2026-05-04 15:44 49.94218 8.59767 3291 ft 238 kts 106°
2026-05-04 15:45 49.93979 8.62359 3528 ft 255 kts 94°
2026-05-04 15:45 49.93877 8.65195 3733 ft 269 kts 94°
2026-05-04 15:45 49.93550 8.68066 4157 ft 272 kts 112°
2026-05-04 15:45 49.92585 8.70589 4593 ft 273 kts 133°
2026-05-04 15:46 49.91111 8.72451 5287 ft 273 kts 146°
2026-05-04 15:46 49.89555 8.74160 6051 ft 276 kts 143°
2026-05-04 15:46 49.88202 8.76284 6774 ft 280 kts 127°
2026-05-04 15:46 49.87197 8.78894 7493 ft 283 kts 119°
2026-05-04 15:47 49.86241 8.81579 8203 ft 286 kts 120°
2026-05-04 15:47 49.85277 8.84255 8914 ft 289 kts 120°
2026-05-04 15:47 49.84288 8.86986 9601 ft 292 kts 120°
2026-05-04 15:47 49.83287 8.89738 10292 ft 294 kts 121°
2026-05-04 15:48 49.82277 8.92511 10987 ft 296 kts 121°
2026-05-04 15:48 49.81259 8.95309 11671 ft 298 kts 122°
2026-05-04 15:48 49.79212 9.00941 13005 ft 303 kts 123°
2026-05-04 15:49 49.78172 9.03792 13632 ft 306 kts 123°
2026-05-04 15:49 49.77134 9.06638 14232 ft 310 kts 123°
2026-05-04 15:49 49.76205 9.09685 14827 ft 316 kts 112°
2026-05-04 15:49 49.75600 9.12976 15415 ft 321 kts 106°
2026-05-04 15:50 49.75068 9.16349 15974 ft 323 kts 106°
2026-05-04 15:50 49.74526 9.19751 16511 ft 327 kts 107°
2026-05-04 15:50 49.73974 9.23179 17048 ft 330 kts 107°
2026-05-04 15:50 49.73413 9.26639 17582 ft 333 kts 107°
2026-05-04 15:51 49.72848 9.30116 18111 ft 335 kts 107°
2026-05-04 15:51 49.72275 9.33634 18618 ft 338 kts 106°
2026-05-04 15:51 49.71703 9.37137 19102 ft 341 kts 107°
2026-05-04 15:51 49.71116 9.40716 19583 ft 344 kts 107°
2026-05-04 15:52 49.70523 9.44323 20055 ft 348 kts 107°
2026-05-04 15:52 49.69926 9.47964 20506 ft 351 kts 107°
2026-05-04 15:52 49.69322 9.51641 20960 ft 354 kts 107°
2026-05-04 15:52 49.68715 9.55340 21393 ft 357 kts 107°
2026-05-04 15:53 49.68097 9.59078 21830 ft 360 kts 107°
2026-05-04 15:53 49.67556 9.62881 22256 ft 365 kts 101°
2026-05-04 15:53 49.67386 9.66768 22671 ft 371 kts 91°
2026-05-04 15:53 49.67619 9.70751 23069 ft 376 kts 82°
2026-05-04 15:54 49.68235 9.74700 23459 ft 380 kts 76°
2026-05-04 15:54 49.68939 9.78653 23822 ft 383 kts 76°
2026-05-04 15:54 49.69643 9.82644 24192 ft 386 kts 76°
2026-05-04 15:54 49.70351 9.86662 24561 ft 389 kts 76°
2026-05-04 15:55 49.71078 9.90699 24929 ft 392 kts 73°
2026-05-04 15:55 49.72077 9.94629 25294 ft 395 kts 65°
2026-05-04 15:55 49.73442 9.98330 25652 ft 397 kts 56°
2026-05-04 15:55 49.75061 10.01818 26019 ft 399 kts 54°
2026-05-04 15:56 49.76690 10.05316 26379 ft 401 kts 54°
2026-05-04 15:56 49.78322 10.08838 26730 ft 403 kts 54°
2026-05-04 15:56 49.79954 10.12373 27070 ft 405 kts 54°
2026-05-04 15:56 49.81593 10.15937 27403 ft 406 kts 54°
2026-05-04 15:57 49.83214 10.19470 27715 ft 408 kts 54°
2026-05-04 15:57 49.84865 10.23066 28033 ft 410 kts 54°
2026-05-04 15:57 49.86525 10.26682 28332 ft 412 kts 54°
2026-05-04 15:57 49.88193 10.30314 28631 ft 414 kts 54°
2026-05-04 15:58 49.89865 10.33963 28940 ft 415 kts 54°
2026-05-04 15:58 49.91540 10.37630 29230 ft 417 kts 54°
2026-05-04 15:58 49.93219 10.41311 29551 ft 417 kts 54°
2026-05-04 15:58 49.94874 10.44946 29946 ft 416 kts 54°
2026-05-04 15:59 49.96542 10.48610 30315 ft 415 kts 54°
2026-05-04 15:59 49.98221 10.52299 30446 ft 421 kts 54°
2026-05-04 15:59 49.99925 10.56044 30571 ft 426 kts 54°
2026-05-04 15:59 50.01647 10.59839 30699 ft 432 kts 54°
2026-05-04 16:00 50.03382 10.63693 30847 ft 437 kts 56°
2026-05-04 16:00 50.04771 10.67910 30955 ft 440 kts 73°
2026-05-04 16:00 50.05361 10.72593 30967 ft 446 kts 87°
2026-05-04 16:00 50.05411 10.77459 30963 ft 453 kts 95°
2026-05-04 16:01 50.04432 10.87217 30962 ft 465 kts 109°
2026-05-04 16:01 50.02496 10.96982 30962 ft 478 kts 111°
2026-05-04 16:02 50.00376 11.06884 30971 ft 484 kts 111°
2026-05-04 16:03 49.97287 11.21810 30980 ft 484 kts 103°
2026-05-04 16:03 49.96689 11.32170 30980 ft 486 kts 94°
2026-05-04 16:04 49.96372 11.42663 30982 ft 486 kts 94°
2026-05-04 16:04 49.95839 11.58406 30989 ft 486 kts 95°
2026-05-04 16:05 49.95483 11.68900 30988 ft 487 kts 95°
2026-05-04 16:06 49.94936 11.84596 30994 ft 487 kts 95°
2026-05-04 16:07 49.94288 12.05646 31004 ft 488 kts 93°
2026-05-04 16:08 49.93925 12.26725 31007 ft 488 kts 93°
2026-05-04 16:09 49.93215 12.52975 31005 ft 487 kts 94°
2026-05-04 16:10 49.92577 12.73919 31004 ft 486 kts 94°
2026-05-04 16:11 49.91930 12.94895 30989 ft 486 kts 94°
2026-05-04 16:12 49.91404 13.10459 30695 ft 474 kts 94°
2026-05-04 16:12 49.90871 13.25583 28868 ft 465 kts 94°
2026-05-04 16:13 49.90516 13.35556 27562 ft 460 kts 94°
2026-05-04 16:13 49.91021 13.45342 26223 ft 457 kts 76°
2026-05-04 16:14 49.93382 13.54461 24834 ft 454 kts 59°
2026-05-04 16:14 49.97063 13.62328 23476 ft 446 kts 52°
2026-05-04 16:15 50.02642 13.73661 21476 ft 435 kts 52°
2026-05-04 16:16 50.06181 13.81198 20180 ft 428 kts 60°
2026-05-04 16:16 50.08864 13.94098 18333 ft 414 kts 81°
2026-05-04 16:17 50.09859 14.02845 17200 ft 404 kts 81°
2026-05-04 16:18 50.11303 14.15575 15623 ft 393 kts 81°
2026-05-04 16:18 50.11767 14.19752 15104 ft 391 kts 81°
2026-05-04 16:19 50.13087 14.32117 13483 ft 380 kts 86°
2026-05-04 16:19 50.12575 14.40097 12380 ft 369 kts 109°
2026-05-04 16:20 50.08796 14.50151 10872 ft 348 kts 129°
2026-05-04 16:20 50.06017 14.55880 10611 ft 317 kts 129°
2026-05-04 16:21 50.02224 14.63645 8699 ft 292 kts 129°
2026-05-04 16:22 49.99822 14.68521 7609 ft 268 kts 129°
2026-05-04 16:22 49.96647 14.74973 6806 ft 244 kts 129°
2026-05-04 16:23 49.93563 14.81189 5842 ft 240 kts 129°
2026-05-04 16:24 49.89723 14.88391 5000 ft 234 kts 151°
2026-05-04 16:25 49.86664 14.88362 5004 ft 234 kts 214°
2026-05-04 16:26 49.86283 14.78967 5005 ft 243 kts 291°
2026-05-04 16:26 49.88259 14.71738 5004 ft 243 kts 290°
2026-05-04 16:27 49.90015 14.67144 4885 ft 253 kts 306°
2026-05-04 16:28 49.93085 14.60939 4508 ft 238 kts 307°
2026-05-04 16:28 49.96083 14.54816 4149 ft 231 kts 306°
2026-05-04 16:29 49.99602 14.47610 4007 ft 197 kts 307°
2026-05-04 16:30 50.02063 14.42557 3510 ft 192 kts 307°
2026-05-04 16:31 50.03662 14.39268 3006 ft 184 kts 307°
2026-05-04 16:31 50.05740 14.34990 2347 ft 156 kts 308°
2026-05-04 16:32 50.07691 14.30969 1732 ft 154 kts 309°
2026-05-04 16:33 50.08969 14.28334 1310 ft 153 kts 308°
2026-05-04 16:33 50.10034 14.26121 1194 ft 84 kts 307°
2026-05-04 16:34 50.10378 14.25657 1186 ft 14 kts 357°
2026-05-04 16:34 50.10467 14.25671 1186 ft 10 kts 17°
2026-05-04 16:35 50.10568 14.25828 1183 ft 6 kts 128°
2026-05-04 16:35 50.10527 14.26062 1181 ft 12 kts 79°
2026-05-04 16:36 50.10537 14.26152 1178 ft 9 kts 83°
2026-05-04 16:36 50.10491 14.26346 1177 ft 8 kts 124°
2026-05-04 16:37 50.10437 14.26468 1178 ft 4 kts 124°
2026-05-04 16:37 50.10420 14.26497 1182 ft 3 kts 135°
2026-05-04 16:37 50.10406 14.26537 1179 ft 1 kts 75°
2026-05-04 16:38 50.10434 14.26579 1178 ft 1 kts 34°
2026-05-04 16:39 50.10436 14.26581 1178 ft 0 kts 34°
2026-05-04 16:42 50.10435 14.26580 1178 ft 0 kts 34°
2026-05-04 16:43 50.10436 14.26581 1178 ft 0 kts 34°